Hourly Weather Roundup
Issued by NWS Central Illinois

Home | Current Version | Previous Version | Graphics & Text | Print | Product List | Glossary On
Versions: 1 2 3 4 5 6 7 8 9 10 11 12 13 14 15 16 17 18 19 20 21 22 23 24 25 26 27 28 29 30 31 32 33 34 35 36 37 38 39 40 41 42 43 44 45 46 47 48 49 50
000
NZUS43 KILX 231410
HWRILX

AREA WEATHER ROUNDUP
NATIONAL WEATHER SERVICE, LINCOLN IL
800 AM CST THU FEB 23 2017


CITY           SKY/WX    TMP DP  RH WIND       PRES   REMARKS
BLOOMINGTON    MOSUNNY   48  46  93 N10       29.77R
CHAMPAIGN      FOG       49  48  97 CALM      29.75F VSB 1/8
DECATUR        FOG       46  45  96 E3        29.75R VSB 1/4
EFFINGHAM      FOG       54  54 100 SE5       29.78R VSB 1/4
FLORA          SUNNY     57  56  99 S9        29.77R FOG
GALESBURG      CLOUDY    43  42  95 N8        29.79R
JACKSONVILLE   MOSUNNY   48  48  99 NE9       29.73R
LACON          MOSUNNY   44  44  97 CALM      29.79R
LAWRENCEVILLE  SUNNY     57  56  96 S13       29.78S
LITCHFIELD     FOG       50  50 100 SE7       29.73S VSB 1/4
$$


CITY           SKY/WX    TMP DP  RH WIND       PRES   REMARKS
LINCOLN        CLOUDY    45  45 100 CALM      29.75R FOG
MACOMB         CLOUDY    43  42  98 N13       29.80R FOG
MATTOON        FOG       53  53 100 S6        29.76R VSB 3/4
MT CARMEL AP   MOSUNNY   57  55  92 S7        29.79R
OLNEY-NOBLE AP CLOUDY    55  55 100 S8        29.78R
PARIS          SUNNY     56  56 100 SW8       29.78R FOG
PEORIA         SUNNY     46  43  89 N9        29.77R
PONTIAC        MOSUNNY   46  46  98 CALM      29.79R FOG
RANTOUL        FOG       48  48  99 CALM      29.76S VSB 1/2
SPRINGFIELD    PTSUNNY   50  49  96 NE6       29.75R FOG
TAYLORVILLE    FOG       49  49 100 CALM      29.74S VSB<1/4
$$

...REGIONAL REPORTS...


CITY           SKY/WX    TMP DP  RH WIND       PRES   REMARKS
CHICAGO O`HARE MOSUNNY   50  42  74 N8        29.75R
KANKAKEE       MOSUNNY   45  44  97 CALM      29.78R
MOLINE         SUNNY     43  39  86 N8        29.77R
MOUNT STERLING CLOUDY    46  43  92 N9        29.77R
MOUNT VERNON   CLOUDY    52  51  97 CALM      29.77R FOG
PITTSFIELD     CLOUDY    49  46  92 N6        29.75R
QUINCY         CLOUDY    46  43  89 N12       29.77R
ROCKFORD       MOSUNNY   45  40  82 NW5       29.79R
$$


CITY           SKY/WX    TMP DP  RH WIND       PRES   REMARKS
BURLINGTON     CLOUDY    43  41  93 N14       29.80R
CEDAR RAPIDS   CLOUDY    41  38  89 N18       29.77S WCI  32
DES MOINES     CLOUDY    40  36  86 NE9       29.83R WCI  34
KIRKSVILLE     CLOUDY    40  38  93 N9        29.80R WCI  34
OTTUMWA        CLOUDY    42  39  89 N8        29.80R
ST LOUIS       PTSUNNY   56  52  86 SE5       29.73R
$$


CITY           SKY/WX    TMP DP  RH WIND       PRES   REMARKS
TERRE HAUTE    MOSUNNY   57  55  93 S6        29.78R
EVANSVILLE     SUNNY     59  55  87 S6        29.81R
INDIANAPOLIS   MOSUNNY   58  56  93 SW7       29.77R
LAFAYETTE      PTSUNNY   51  51 100 CALM      29.76R FOG
MADISON        CLOUDY    40  35  83 N10       29.80R WCI  33
MILWAUKEE      CLOUDY    42  37  82 NE16      29.77R WCI  34
$$





USA.gov is the U.S. government's official web portal to all federal, state and local government web resources and services.